Location: Wavehorne
(51.0500°N, 0.8333°E)
Time: 16:33:01
(UTC+00:00)

NOSS 2-2 (C) - Pass Details

Date: 02 November 2021
Orbit: 450 x 1755 km, 63.3° (Epoch: 01 December)

Event Time Altitude Azimuth Distance (km) Brightness Sun altitude
Rises 18:14:41 0° 228° (SW) 2,458 7.5 -17.0°
Reaches altitude 10° 18:16:43 10° 231° (SW) 1,582 6.4 -17.3°
Maximum altitude 18:20:06 72° 316° (NW) 500 3.1 -17.8°
Enters shadow 18:21:39 32° 35° (NE) 868 4.0 -18.1°
